Starlink 32090

operational
NORAD ID: 59691 Int'l Des: 2024-086 Owner: SPXS Country: US Constellation: starlink
LEOCIRCULAR

关于 Starlink 32090

正在加载描述...

实时位置

正在加载3D地球...

即将过境

高度历史

Altitude vs Time

uPlot chart will show altitude changes over time

两行轨道根数

1 59691U 24086K 25303.74298453 -.00001799 00000-0 -55871-4 0 9993
2 59691 43.0008 77.6385 0001196 283.2592 76.8126 15.27569369 84196
Epoch: Oct 30, 2025 • Age: 22 hours

当前状态

高度 486.3 km
速度 7.63 km/s
星下点 39.48°N, 93.65°W
发射日期 May 8, 2024
运行时间 1.4 years
类型 internet

技术详情

分类 Payload
质量 730.00 kg
干质量 700.00 kg
总质量 730.00 kg
长度 0.30 m
直径 4.10 m
跨度 29.00 m
形状 Box + pan
制造商 SPXS
平台类型 Starlink V2M
阶段状态 In Orbit
所有者/国家 SPXS/US

大型星座

Loading constellations...